User: anonymous   Login
Location: Unspecified
(0.0000°N, 0.0000°E)
Time: 00:05:12
(UTC+00:00)
Language:

YAOGAN 9B - Orbit

View from above orbital plane
View from above orbital plane
View from above satellite
View from above satellite

Ground track
Ground track

The orbit data is extracted from the following two-line orbital elements,

1 36414U 10009B   18112.45602009 -.00000082 +00000-0 +11881-4 0  9991
2 36414 063.3978 115.7322 0274940 004.7682 355.5856 13.45177035399543
Epoch (UTC): 22 April 2018 10:56:40
Eccentricity: 0.0274940
inclination: 63.3978°
perigee height: 885 km
apogee height: 1295 km
right ascension of ascending node: 115.7322°
argument of perigee: 4.7682°
revolutions per day: 13.45177035
mean anomaly at epoch: 355.5856°
orbit number at epoch: 39954

The dashed part of the orbit path shows where the satellite is in the earth's shadow,  

DLR